Voltar ao catálogo

GOSAT-GW

AtivoCiênciaSSO
NORAD 64694·PAYLOAD·🇯🇵 Japan

Lançado Jun 28, 2025 de Tanegashima Space Center

Loading…

Próximas Passagens (próximas 24 horas)

TLE

AtualizadoSource: Space-Track

Época: Sep 14, 2026, 13:49 UTC

1 64694U 25141A   26257.57605854  .00000484  00000-0  93803-4 0  9997
2 64694  98.0599 193.4469 0001434  84.4521 275.6847 14.67554587 64958

Acompanhe GOSAT-GW em tempo real com AllMySat

Download on the App Store